Flight Track Log - Related Links

Times and Time Zones

All times are in EDT time to prevent confusion due to time zone crossing. See the N839CA flight status page for this flight to view local times or setup timezone preferences in your user account.

Time Position Orientation Groundspeed Altitude Reporting Facility
EDT Latitude Longitude Course Direction KTS MPH feet Rate Location/Type
Tue 10:11:25 AM 39.1500 -76.6333 38° Northeast 139 160 1,700  Level Potomac TRACON
Tue 10:12:19 AM 39.1500 -76.5833 90° East 145 167 3,100 1,526 Climbing Potomac TRACON
Tue 10:13:19 AM 39.1500 -76.5333 90° East 157 181 4,600 1,450 Climbing Potomac TRACON
Tue 10:14:19 AM 39.1500 -76.4833 90° East 164 189 6,000 1,438 Climbing Potomac TRACON
Tue 10:15:20 AM 39.1833 -76.4333 49° Northeast 165 190 7,500 1,461 Climbing Potomac TRACON
Tue 10:16:00 AM 39.1983 -76.1683 38° Northeast  Level FlightAware Approximate
Tue 10:16:14 AM 39.2000 -76.3833 67° East 165 190 8,800  Level Potomac TRACON
Tue 10:17:14 AM 39.2167 -76.3167 72° East 171 197 10,100 1,158 Climbing Potomac TRACON
Tue 10:18:08 AM 39.2333 -76.2667 67° East 175 201 11,000 450 Climbing Potomac TRACON
Tue 10:19:14 AM 39.2500 -76.2000 72° East 222 255 11,000  Level Potomac TRACON
Tue 10:21:32 AM 39.3333 -76.0167 60° Northeast 252 290 11,000  Level Philadelphia TRACON
Tue 10:22:32 AM 39.3833 -75.9667 38° Northeast 259 298 11,000  Level Philadelphia TRACON
Tue 10:23:27 AM 39.4333 -75.9000 46° Northeast 260 299 11,000  Level Philadelphia TRACON
Tue 10:24:27 AM 39.4833 -75.8333 46° Northeast 263 303 11,000  Level Philadelphia TRACON
Tue 10:25:27 AM 39.5333 -75.7833 38° Northeast 262 302 11,000  Level Philadelphia TRACON
Tue 10:26:26 AM 39.6000 -75.7167 38° Northeast 263 303 11,000  Level Philadelphia TRACON
Tue 10:27:26 AM 39.6500 -75.6500 46° Northeast 264 304 11,000  Level Philadelphia TRACON
Tue 10:28:27 AM 39.6833 -75.5667 63° Northeast 253 291 11,000  Level Philadelphia TRACON
Tue 10:29:27 AM 39.7167 -75.4833 63° Northeast 254 292 11,000  Level Philadelphia TRACON
Tue 10:30:27 AM 39.7333 -75.4000 75° East 255 293 11,000  Level Philadelphia TRACON
Tue 10:31:27 AM 39.7667 -75.3167 62° Northeast 254 292 11,000 -450 Level Philadelphia TRACON
Tue 10:32:27 AM 39.7833 -75.2333 75° East 271 312 10,100 -500 Descending Philadelphia TRACON
Tue 10:33:27 AM 39.8167 -75.1500 62° Northeast 252 290 10,000 -50 Descending Philadelphia TRACON
Tue 10:34:27 AM 39.8333 -75.0500 78° East 254 292 10,000 -200 Level Philadelphia TRACON
Tue 10:35:27 AM 39.8667 -74.9667 62° Northeast 257 296 9,600 -600 Descending Philadelphia TRACON
Tue 10:36:27 AM 39.9167 -74.9000 46° Northeast 272 313 8,800 -800 Descending Philadelphia TRACON
Tue 10:37:27 AM 39.9667 -74.8333 46° Northeast 267 307 8,000 -800 Descending Philadelphia TRACON
Tue 10:38:27 AM 40.0167 -74.7667 46° Northeast 262 302 7,200 -465 Descending Philadelphia TRACON
Tue 10:39:36 AM 40.0833 -74.6833 44° Northeast 257 296 7,000 -93 Descending New York TRACON
Tue 10:40:36 AM 40.1333 -74.6333 37° Northeast 256 295 7,000 -100 Level New York TRACON
Tue 10:41:36 AM 40.2000 -74.5833 30° Northeast 255 293 6,800 -600 Descending New York TRACON
Tue 10:42:36 AM 40.2500 -74.5167 45° Northeast 263 303 5,800 -900 Descending New York TRACON
Tue 10:43:36 AM 40.3167 -74.4667 30° Northeast 258 297 5,000 -789 Descending New York TRACON
Tue 10:44:30 AM 40.3667 -74.4667 360° North 243 280 4,300 -684 Descending New York TRACON
Tue 10:45:30 AM 40.4333 -74.4500 11° North 211 243 3,700 -619 Descending New York TRACON
Tue 10:46:36 AM 40.4667 -74.3833 57° Northeast 197 227 3,000 -333 Descending New York TRACON
Tue 10:47:36 AM 40.4833 -74.3167 72° East 198 228 3,000  Level New York TRACON
Tue 10:48:30 AM 40.5167 -74.2833 37° Northeast 190 219 3,000 -300 Level New York TRACON
Tue 10:49:36 AM 40.5667 -74.2333 37° Northeast 188 216 2,400 -800 Descending New York TRACON
Tue 10:50:30 AM 40.6167 -74.2167 14° North 181 208 1,400 -947 Descending New York TRACON
Tue 10:51:30 AM 40.6500 -74.1833 37° Northeast 144 166 600 -800 Descending New York TRACON
Tue 10:53:00 AM 40.6833 -74.1667 21° North  Level FlightAware Approximate
Tue 11:00:00 AM 40.6925 -74.1687 21° North  Level Estimated
Tue 11:01:00 AM 40.6925 -74.1687 21° North  Level Estimated

Login

Don't have an account? Register now (free) for customized features, flight alerts, and more!